| time (UTC) | temp F | wind direction | speed MPH | gust MPH | rain 1hr in | rain 24hr in | rain mn in | humidity % | barometer mb |
| 20260507225932 | 61 | 189 | 1.0 | 2.0 | 0.00 | 0.07 | 0.07 | 62 | 1009.0 |
| 20260507224930 | 61 | 208 | 1.0 | 3.0 | 0.00 | 0.07 | 0.07 | 63 | 1009.1 |
| 20260507223929 | 62 | 158 | 3.0 | 3.0 | 0.00 | 0.07 | 0.07 | 60 | 1008.8 |
| 20260507222928 | 62 | 181 | 4.0 | 6.0 | 0.00 | 0.07 | 0.07 | 58 | 1008.7 |
| 20260507221927 | 63 | 176 | 1.0 | 2.0 | 0.00 | 0.07 | 0.07 | 59 | 1008.7 |
| 20260507220926 | 64 | 318 | 2.0 | 2.0 | 0.00 | 0.07 | 0.07 | 56 | 1008.6 |
| 20260507215926 | 64 | 183 | 1.0 | 1.0 | 0.00 | 0.07 | 0.07 | 58 | 1008.8 |
| 20260507214926 | 62 | 225 | 2.0 | 2.0 | 0.00 | 0.07 | 0.07 | 60 | 1008.7 |
| 20260507213925 | 63 | 240 | 2.0 | 3.0 | 0.00 | 0.07 | 0.07 | 60 | 1008.6 |
| 20260507212925 | 63 | 165 | 3.0 | 3.0 | 0.00 | 0.07 | 0.07 | 55 | 1008.7 |
| 20260507211924 | 63 | 211 | 0.0 | 1.0 | 0.00 | 0.07 | 0.07 | 60 | 1008.7 |
| 20260507210923 | 62 | 255 | 2.0 | 2.0 | 0.00 | 0.07 | 0.07 | 58 | 1008.6 |
| 20260507205922 | 64 | 207 | 0.0 | 0.0 | 0.00 | 0.07 | 0.07 | 55 | 1008.6 |
| 20260507204921 | 64 | 187 | 2.0 | 4.0 | 0.00 | 0.07 | 0.07 | 56 | 1008.6 |
| 20260507203922 | 64 | 241 | 2.0 | 2.0 | 0.00 | 0.07 | 0.07 | 57 | 1008.5 |
| 20260507202922 | 63 | 147 | 4.0 | 7.0 | 0.00 | 0.07 | 0.07 | 59 | 1009.0 |
| 20260507201920 | 64 | 168 | 2.0 | 3.0 | 0.00 | 0.07 | 0.07 | 60 | 1008.7 |
| 20260507200918 | 62 | 178 | 4.0 | 7.0 | 0.00 | 0.07 | 0.07 | 59 | 1008.5 |
| 20260507195915 | 63 | 171 | 5.0 | 7.0 | 0.00 | 0.07 | 0.07 | 57 | 1008.7 |
| 20260507194910 | 63 | 163 | 2.0 | 2.0 | 0.00 | 0.07 | 0.07 | 59 | 1009.1 |
| 20260507193908 | 70 | 105 | 0.0 | 1.0 | 0.00 | 0.07 | 0.07 | 50 | 1008.8 |
| 20260507192908 | 69 | 228 | 0.0 | 1.0 | 0.00 | 0.07 | 0.07 | 42 | 1008.9 |
| 20260507191907 | 68 | 249 | 1.0 | 2.0 | 0.00 | 0.07 | 0.07 | 51 | 1009.1 |
| 20260507190905 | 69 | 257 | 2.0 | 3.0 | 0.00 | 0.07 | 0.07 | 43 | 1009.2 |
| 20260507185902 | 69 | 254 | 2.0 | 2.0 | 0.00 | 0.07 | 0.07 | 49 | 1009.5 |
| 20260507184901 | 70 | 225 | 1.0 | 1.0 | 0.00 | 0.07 | 0.07 | 46 | 1009.3 |
| 20260507183856 | 68 | 204 | 0.0 | 1.0 | 0.00 | 0.07 | 0.07 | 48 | 1009.3 |
| 20260507182850 | 68 | 269 | 4.0 | 4.0 | 0.00 | 0.07 | 0.07 | 46 | 1009.7 |
| 20260507181848 | 67 | 246 | 2.0 | 3.0 | 0.00 | 0.07 | 0.07 | 51 | 1009.6 |
| 20260507180847 | 66 | 117 | 2.0 | 3.0 | 0.00 | 0.07 | 0.07 | 49 | 1009.9 |
| 20260507175845 | 65 | 111 | 2.0 | 3.0 | 0.00 | 0.07 | 0.07 | 56 | 1010.0 |
| 20260507174840 | 63 | 206 | 0.0 | 1.0 | 0.00 | 0.07 | 0.07 | 63 | 1010.0 |
| 20260507173840 | 64 | 66 | 1.0 | 2.0 | 0.00 | 0.07 | 0.07 | 59 | 1010.3 |
| 20260507172839 | 62 | 228 | 0.0 | 0.0 | 0.00 | 0.07 | 0.07 | 55 | 1010.4 |
| 20260507171838 | 62 | 104 | 2.0 | 3.0 | 0.00 | 0.07 | 0.07 | 57 | 1010.6 |
| 20260507170838 | 62 | 142 | 1.0 | 3.0 | 0.00 | 0.07 | 0.07 | 65 | 1010.9 |
| 20260507165835 | 61 | 160 | 2.0 | 2.0 | 0.00 | 0.07 | 0.07 | 60 | 1011.3 |
| 20260507164833 | 62 | 208 | 1.0 | 1.0 | 0.00 | 0.07 | 0.07 | 56 | 1011.3 |
| 20260507163833 | 61 | 218 | 1.0 | 2.0 | 0.00 | 0.07 | 0.07 | 58 | 1011.5 |
| 20260507162833 | 60 | 199 | 1.0 | 2.0 | 0.00 | 0.07 | 0.07 | 57 | 1011.3 |
| 20260507161831 | 60 | 16 | 2.0 | 3.0 | 0.00 | 0.07 | 0.07 | 54 | 1011.6 |
| 20260507160830 | 58 | 203 | 1.0 | 1.0 | 0.00 | 0.07 | 0.07 | 60 | 1012.0 |
| 20260507155828 | 57 | 252 | 0.0 | 0.0 | 0.00 | 0.07 | 0.07 | 57 | 1011.9 |
| 20260507154827 | 57 | 228 | 0.0 | 1.0 | 0.00 | 0.07 | 0.07 | 62 | 1011.9 |
| 20260507153827 | 57 | 243 | 1.0 | 1.0 | 0.00 | 0.07 | 0.07 | 60 | 1012.0 |
| 20260507152826 | 57 | 350 | 3.0 | 3.0 | 0.00 | 0.07 | 0.07 | 59 | 1012.3 |
| 20260507151824 | 58 | 67 | 1.0 | 2.0 | 0.00 | 0.07 | 0.07 | 58 | 1012.5 |
| 20260507150824 | 57 | 234 | 0.0 | 0.0 | 0.00 | 0.07 | 0.07 | 62 | 1012.2 |
| 20260507145822 | 57 | 194 | 1.0 | 2.0 | 0.00 | 0.07 | 0.07 | 60 | 1012.7 |
| 20260507144822 | 56 | 232 | 0.0 | 1.0 | 0.00 | 0.07 | 0.07 | 59 | 1012.7 |
| 20260507143821 | 55 | 219 | 0.0 | 0.0 | 0.00 | 0.07 | 0.07 | 60 | 1012.7 |
| 20260507142820 | 55 | 269 | 1.0 | 1.0 | 0.00 | 0.07 | 0.07 | 62 | 1012.8 |
| 20260507141820 | 54 | 17 | 0.0 | 1.0 | 0.00 | 0.07 | 0.07 | 68 | 1012.9 |
| 20260507140819 | 54 | 216 | 0.0 | 0.0 | 0.00 | 0.07 | 0.07 | 65 | 1013.2 |
| 20260507135814 | 54 | 1 | 2.0 | 3.0 | 0.00 | 0.07 | 0.07 | 67 | 1012.9 |
| 20260507134813 | 54 | 25 | 2.0 | 2.0 | 0.00 | 0.07 | 0.07 | 65 | 1013.3 |
| 20260507133811 | 54 | 289 | 1.0 | 1.0 | 0.00 | 0.07 | 0.07 | 68 | 1013.4 |
| 20260507132811 | 54 | 235 | 1.0 | 1.0 | 0.00 | 0.07 | 0.07 | 67 | 1013.4 |
| 20260507131811 | 54 | 230 | 0.0 | 1.0 | 0.00 | 0.07 | 0.07 | 70 | 1013.3 |
| 20260507130810 | 53 | 225 | 1.0 | 2.0 | 0.00 | 0.07 | 0.07 | 66 | 1013.1 |
| 20260507125806 | 53 | 235 | 1.0 | 1.0 | 0.00 | 0.07 | 0.07 | 71 | 1013.1 |
| 20260507124806 | 53 | 227 | 0.0 | 1.0 | 0.00 | 0.07 | 0.07 | 71 | 1013.3 |
| 20260507123801 | 53 | 229 | 0.0 | 0.0 | 0.00 | 0.07 | 0.07 | 71 | 1013.4 |
| 20260507122800 | 53 | 231 | 0.0 | 0.0 | 0.00 | 0.07 | 0.07 | 70 | 1013.5 |
| 20260507121757 | 53 | 167 | 0.0 | 1.0 | 0.00 | 0.07 | 0.07 | 68 | 1013.0 |
| 20260507120756 | 53 | 222 | 0.0 | 1.0 | 0.00 | 0.07 | 0.07 | 71 | 1013.1 |
| 20260507115755 | 53 | 254 | 1.0 | 1.0 | 0.00 | 0.07 | 0.07 | 70 | 1013.0 |
| 20260507114752 | 53 | 270 | 1.0 | 2.0 | 0.00 | 0.07 | 0.07 | 70 | 1013.1 |
| 20260507113747 | 53 | 216 | 1.0 | 2.0 | 0.00 | 0.07 | 0.07 | 70 | 1012.8 |
| 20260507112747 | 53 | 300 | 3.0 | 3.0 | 0.00 | 0.07 | 0.07 | 73 | 1012.8 |
| 20260507111742 | 53 | 262 | 2.0 | 3.0 | 0.00 | 0.07 | 0.07 | 76 | 1012.4 |
| 20260507110740 | 53 | 314 | 1.0 | 2.0 | 0.00 | 0.07 | 0.07 | 82 | 1012.6 |
| 20260507105740 | 53 | 308 | 2.0 | 2.0 | 0.00 | 0.07 | 0.07 | 80 | 1012.6 |
| 20260507104739 | 53 | 259 | 1.0 | 1.0 | 0.00 | 0.07 | 0.07 | 85 | 1012.5 |
| 20260507103737 | 53 | 264 | 0.0 | 1.0 | 0.00 | 0.07 | 0.07 | 88 | 1012.4 |
| 20260507102736 | 53 | 226 | 0.0 | 1.0 | 0.00 | 0.07 | 0.07 | 89 | 1012.2 |
| 20260507101735 | 53 | 234 | 0.0 | 1.0 | 0.00 | 0.07 | 0.07 | 90 | 1012.0 |
| 20260507100734 | 53 | 233 | 0.0 | 0.0 | 0.00 | 0.07 | 0.07 | 89 | 1012.2 |
| 20260507095729 | 53 | 240 | 1.0 | 1.0 | 0.00 | 0.07 | 0.07 | 89 | 1012.1 |
| 20260507094729 | 53 | 227 | 0.0 | 0.0 | 0.00 | 0.07 | 0.07 | 89 | 1011.9 |
| 20260507093728 | 53 | 226 | 0.0 | 0.0 | 0.00 | 0.07 | 0.07 | 89 | 1012.0 |
| 20260507092724 | 53 | 190 | 0.0 | 0.0 | 0.00 | 0.07 | 0.07 | 89 | 1011.9 |
| 20260507091722 | 53 | 243 | 0.0 | 0.0 | 0.00 | 0.07 | 0.07 | 90 | 1011.6 |
| 20260507090719 | 53 | 237 | 0.0 | 1.0 | 0.00 | 0.07 | 0.07 | 91 | 1011.6 |
| 20260507085719 | 54 | 223 | 0.0 | 0.0 | 0.00 | 0.07 | 0.07 | 90 | 1011.5 |
| 20260507084719 | 54 | 8 | 0.0 | 1.0 | 0.00 | 0.07 | 0.07 | 90 | 1011.6 |
| 20260507083718 | 54 | 246 | 1.0 | 1.0 | 0.00 | 0.07 | 0.07 | 91 | 1011.7 |
| 20260507082716 | 54 | 234 | 0.0 | 0.0 | 0.00 | 0.07 | 0.07 | 91 | 1011.5 |
| 20260507081714 | 54 | 233 | 0.0 | 0.0 | 0.00 | 0.07 | 0.07 | 91 | 1011.7 |
| 20260507080713 | 54 | 240 | 0.0 | 1.0 | 0.00 | 0.07 | 0.07 | 91 | 1011.7 |
| 20260507075711 | 54 | 234 | 1.0 | 2.0 | 0.00 | 0.07 | 0.07 | 92 | 1011.5 |
| 20260507074709 | 54 | 233 | 0.0 | 1.0 | 0.00 | 0.07 | 0.07 | 93 | 1011.0 |
| 20260507073704 | 54 | 231 | 0.0 | 0.0 | 0.00 | 0.07 | 0.07 | 93 | 1010.9 |
| 20260507072704 | 54 | 232 | 0.0 | 0.0 | 0.00 | 0.07 | 0.07 | 93 | 1011.1 |
| 20260507071659 | 53 | 228 | 0.0 | 0.0 | 0.00 | 0.07 | 0.07 | 92 | 1010.9 |
| 20260507070659 | 54 | 277 | 2.0 | 3.0 | 0.00 | 0.07 | 0.07 | 93 | 1011.0 |
| 20260507065657 | 54 | 191 | 0.0 | 1.0 | 0.00 | 0.07 | 0.07 | 93 | 1011.1 |
| 20260507064657 | 54 | 218 | 1.0 | 1.0 | 0.00 | 0.07 | 0.07 | 93 | 1010.8 |
| 20260507063653 | 54 | 213 | 1.0 | 1.0 | 0.00 | 0.07 | 0.07 | 94 | 1011.1 |
| 20260507062652 | 54 | 227 | 0.0 | 0.0 | 0.00 | 0.07 | 0.07 | 96 | 1011.3 |
| 20260507061648 | 54 | 221 | 0.0 | 0.0 | 0.00 | 0.07 | 0.07 | 96 | 1011.5 |
| 20260507060643 | 54 | 238 | 0.0 | 0.0 | 0.00 | 0.07 | 0.07 | 97 | 1011.1 |
| 20260507055641 | 55 | 226 | 0.0 | 0.0 | 0.00 | 0.07 | 0.07 | 96 | 1011.0 |
| 20260507054639 | 55 | 250 | 0.0 | 0.0 | 0.00 | 0.07 | 0.07 | 96 | 1011.3 |
| 20260507053634 | 55 | 222 | 1.0 | 1.0 | 0.05 | 0.07 | 0.07 | 96 | 1011.3 |
| 20260507052630 | 55 | 29 | 0.0 | 1.0 | 0.00 | 0.06 | 0.06 | 95 | 1011.2 |
| 20260507051630 | 55 | 226 | 1.0 | 1.0 | 0.07 | 0.06 | 0.06 | 94 | 1011.2 |
| 20260507050629 | 55 | 266 | 2.0 | 3.0 | 0.00 | 0.05 | 0.05 | 95 | 1011.4 |
| 20260507045629 | 55 | 214 | 1.0 | 1.0 | 0.00 | 0.05 | 0.05 | 95 | 1010.9 |
| 20260507044628 | 55 | 154 | 1.0 | 1.0 | 0.00 | 0.05 | 0.05 | 95 | 1010.8 |
| 20260507043627 | 56 | 293 | 1.0 | 1.0 | 0.00 | 0.05 | 0.05 | 96 | 1011.4 |
| 20260507042626 | 56 | 294 | 1.0 | 2.0 | 0.00 | 0.05 | 0.05 | 95 | 1010.9 |
| 20260507041624 | 57 | 209 | 0.0 | 0.0 | 0.00 | 0.05 | 0.05 | 94 | 1011.5 |
| 20260507040624 | 58 | 121 | 0.0 | 0.0 | 0.83 | 0.05 | 0.05 | 92 | 1011.2 |
| 20260507035622 | 59 | 298 | 3.0 | 4.0 | 0.00 | 0.25 | 0.25 | 86 | 1011.0 |
| 20260507034621 | 59 | 226 | 2.0 | 2.0 | 0.00 | 0.25 | 0.25 | 88 | 1011.0 |
| 20260507033617 | 59 | 240 | 1.0 | 1.0 | 0.00 | 0.25 | 0.25 | 89 | 1010.6 |
| 20260507032617 | 60 | 4 | 1.0 | 2.0 | 0.00 | 0.25 | 0.25 | 91 | 1010.4 |
| 20260507031615 | 60 | 235 | 1.0 | 1.0 | 0.00 | 0.25 | 0.25 | 91 | 1010.4 |
| 20260507030615 | 61 | 179 | 1.0 | 2.0 | 0.00 | 0.25 | 0.25 | 89 | 1010.8 |
| 20260507025609 | 62 | 270 | 3.0 | 6.0 | 0.00 | 0.25 | 0.25 | 87 | 1010.4 |
| 20260507024604 | 62 | 281 | 2.0 | 2.0 | 0.00 | 0.25 | 0.25 | 87 | 1009.9 |
| 20260507023602 | 62 | 35 | 2.0 | 3.0 | 0.00 | 0.25 | 0.25 | 87 | 1009.7 |
| 20260507022557 | 62 | 228 | 0.0 | 0.0 | 0.00 | 0.25 | 0.25 | 88 | 1010.3 |
| 20260507021555 | 63 | 218 | 0.0 | 0.0 | 0.00 | 0.25 | 0.25 | 88 | 1009.8 |
| 20260507020549 | 63 | 209 | 2.0 | 2.0 | 0.00 | 0.25 | 0.25 | 88 | 1009.8 |
| 20260507015549 | 63 | 285 | 3.0 | 6.0 | 0.00 | 0.25 | 0.25 | 89 | 1009.7 |
| 20260507014549 | 63 | 222 | 0.0 | 1.0 | 0.00 | 0.25 | 0.25 | 93 | 1009.8 |
| 20260507013547 | 63 | 227 | 0.0 | 0.0 | 0.00 | 0.25 | 0.25 | 92 | 1009.7 |
| 20260507012542 | 64 | 230 | 0.0 | 0.0 | 0.00 | 0.25 | 0.25 | 91 | 1009.6 |
| 20260507011541 | 64 | 239 | 1.0 | 2.0 | 0.00 | 0.25 | 0.25 | 91 | 1010.0 |
| 20260507010537 | 64 | 276 | 1.0 | 2.0 | 0.00 | 0.25 | 0.25 | 92 | 1010.0 |
| 20260507005532 | 64 | 246 | 2.0 | 2.0 | 0.00 | 0.25 | 0.25 | 95 | 1009.8 |
| 20260507004531 | 65 | 258 | 0.0 | 0.0 | 0.00 | 0.25 | 0.25 | 96 | 1009.7 |
| 20260507003530 | 65 | 234 | 0.0 | 0.0 | 0.00 | 0.25 | 0.25 | 97 | 1009.4 |
| 20260507002528 | 65 | 223 | 0.0 | 1.0 | 0.00 | 0.25 | 0.25 | 98 | 1009.7 |
| 20260507001526 | 65 | 227 | 1.0 | 1.0 | 0.07 | 0.25 | 0.25 | 98 | 1009.4 |
| 20260507000526 | 65 | 229 | 0.0 | 0.0 | 0.07 | 0.25 | 0.25 | 98 | 1009.2 |
| 20260506235525 | 65 | 218 | 0.0 | 0.0 | 0.00 | 0.24 | 0.24 | 98 | 1009.0 |
| 20260506234524 | 65 | 234 | 0.0 | 0.0 | 0.00 | 0.24 | 0.24 | 97 | 1009.0 |
| 20260506233524 | 66 | 218 | 0.0 | 0.0 | 0.07 | 0.24 | 0.24 | 94 | 1009.0 |
| 20260506232523 | 67 | 224 | 1.0 | 1.0 | 0.12 | 0.23 | 0.23 | 91 | 1008.9 |
| 20260506231522 | 69 | 227 | 2.0 | 3.0 | 0.00 | 0.21 | 0.21 | 86 | 1008.5 |